Location: LewisvilleTX
(33.0462°N, 96.9942°W)
Time: 17:05:42
(UTC+00:00)

Hubble Space Telescope - Visible Passes

Search period start: 23 September 2020 00:00
Search period end: 03 October 2020 00:00
Orbit: 536 x 540 km, 28.5° (Epoch: 22 September)

Date Brightness Start Highest point End Pass type
(mag) Time Alt. Az. Time Alt. Az. Time Alt. Az.
23 Sep 3.0 11:21:57 10° SSW 11:24:40 17° SSE 11:27:23 10° ESE visible
24 Sep 2.7 11:11:03 11° SSW 11:13:51 20° SSE 11:16:56 10° ESE visible
25 Sep 2.4 11:01:06 17° SSW 11:03:03 24° SSE 11:06:24 10° ESE visible
26 Sep 2.1 10:51:07 24° SSW 10:52:15 28° SSE 10:55:48 10° ESE visible
27 Sep 1.9 10:41:06 31° S 10:41:29 32° SSE 10:45:10 10° ESE visible
28 Sep 1.8 10:31:03 35° SSE 10:31:03 35° SSE 10:34:29 10° ESE visible
29 Sep 2.1 10:20:59 32° SE 10:20:59 32° SE 10:23:47 10° ESE visible
29 Sep 1.6 11:56:57 10° WSW 12:00:51 41° S 12:04:45 10° ESE visible
30 Sep 2.6 10:10:56 26° ESE 10:10:56 26° ESE 10:13:04 10° ESE visible
30 Sep 1.6 11:46:16 10° WSW 11:50:05 39° S 11:53:56 10° ESE visible
01 Oct 3.1 10:00:53 20° ESE 10:00:53 20° ESE 10:02:20 10° ESE visible
01 Oct 1.7 11:36:13 14° WSW 11:39:19 35° S 11:43:06 10° ESE visible
02 Oct 3.5 09:50:52 14° ESE 09:50:52 14° ESE 09:51:35 10° ESE visible
02 Oct 1.8 11:26:12 18° WSW 11:28:33 32° SSW 11:32:13 10° SE visible
